KB2KRJ Weather Reports


Display with metric or nautical units.
time (UTC)temp
F
wind
direction
speed
MPH
gust
MPH
rain 1hr
in
rain 24hr
in
rain mn
in
humidity
%
barometer
mb
20260904144513 75 198 0.0 4.0 0.00 0.00 0.00 52 1012.7
20260904143009 75 200 0.0 5.0 0.00 0.00 0.00 48 1012.8
20260904141505 74 31 1.0 5.0 0.00 0.00 0.00 42 1012.6
20260904140108 73 203 0.0 4.0 0.00 0.00 0.00 31 1012.6
20260904134556 73 348 0.0 6.0 0.00 0.00 0.00 21 1012.7
20260904133052 73 63 0.0 7.0 0.00 0.00 0.00 18 1012.8
20260904131548 72 10 0.0 8.0 0.00 0.00 0.00 12 1012.8
20260904130057 72 128 0.0 7.0 0.00 0.00 0.00 100 1012.8
20260904124545 71 333 0.0 6.0 0.00 0.00 0.00 100 1012.7
20260904123033 70 38 0.0 7.0 0.00 0.00 0.00 100 1012.6
20260904121529 0 0.0 0.0 0.00 0.00 0.00 1012.4
20260904120035 0 0.0 0.0 0.00 0.00 0.00 1012.5
20260904114525 0 0.0 0.0 0.00 0.00 0.00 1012.2
20260904113019 0 0.0 0.0 0.00 0.00 0.00 1012.2
20260904111512 0 0.0 0.0 0.00 0.00 0.00 1012.0
20260904110007 0 0.0 0.0 0.00 0.00 0.00 1011.9
20260904104509 0 0.0 0.0 0.00 0.00 0.00 1011.6
20260904103059 0 0.0 0.0 0.00 0.00 0.00 1011.4
20260904101554 65 23 0.0 0.0 0.00 0.00 0.00 100 1011.2
20260904100049 65 23 0.0 0.0 0.00 0.00 0.00 100 1011.3
20260904094542 65 23 0.0 0.0 0.00 0.00 0.00 100 1011.4
20260904093039 66 23 0.0 0.0 0.00 0.00 0.00 100 1011.4
20260904091534 66 23 0.0 0.0 0.00 0.00 0.00 100 1011.3
20260904090033 66 23 0.0 0.0 0.00 0.00 0.00 100 1011.2
20260904084525 66 23 0.0 0.0 0.00 0.00 0.00 100 1011.2
20260904083023 66 23 0.0 0.0 0.00 0.00 0.00 100 1011.1
20260904081516 66 23 0.0 0.0 0.00 0.00 0.00 100 1010.9
20260904080014 67 23 0.0 0.0 0.00 0.00 0.00 100 1010.8
20260904074507 67 23 0.0 0.0 0.00 0.00 0.00 100 1010.8
20260904073003 67 23 0.0 0.0 0.00 0.00 0.00 100 1010.9
20260904071559 67 23 0.0 0.0 0.00 0.00 0.00 100 1010.9
20260904070055 67 23 0.0 0.0 0.00 0.00 0.00 100 1011.2
20260904064555 67 23 0.0 0.0 0.00 0.00 0.00 100 1011.3
20260904063046 67 23 0.0 0.0 0.00 0.00 0.00 100 1011.4
20260904061545 67 23 0.0 0.0 0.00 0.00 0.00 100 1011.7
20260904060037 68 23 0.0 0.0 0.00 0.00 0.00 100 1012.0
20260904054537 68 23 0.0 0.0 0.00 0.00 0.00 100 1012.0
20260904053028 68 23 0.0 0.0 0.00 0.00 0.00 100 1012.1
20260904051524 68 23 0.0 0.0 0.00 0.00 0.00 100 1011.8
20260904050021 68 23 0.0 0.0 0.00 0.00 0.00 100 1011.9
20260904044523 68 23 0.0 0.0 0.00 0.00 0.00 100 1012.1
20260904043013 69 23 0.0 0.0 0.00 0.00 0.00 100 1012.2
20260904041507 69 23 0.0 0.0 0.00 0.00 0.00 100 1012.2
20260904040002 69 23 0.0 0.0 0.00 0.00 0.00 100 1012.2
20260904034558 69 23 0.0 1.0 0.00 0.00 0.00 100 1012.2
20260904033055 70 22 0.0 1.0 0.00 0.00 0.00 100 1012.5
20260904031553 70 22 0.0 0.0 0.00 0.00 0.00 100 1012.4
20260904030045 70 22 0.0 0.0 0.00 0.00 0.00 100 1012.5
20260904024541 70 22 0.0 0.0 0.00 0.00 0.00 100 1012.7
20260904023038 71 22 0.0 0.0 0.00 0.00 0.00 100 1012.7
20260904021532 71 22 0.0 2.0 0.00 0.00 0.00 100 1013.0
20260904020027 71 22 0.0 0.0 0.00 0.00 0.00 100 1013.1
20260904014523 71 22 0.0 1.0 0.00 0.00 0.00 100 1013.0
20260904013019 71 22 0.0 0.0 0.00 0.00 0.00 100 1013.1
20260904011515 72 22 0.0 0.0 0.00 0.00 0.00 100 1013.0
20260904010010 72 22 0.0 0.0 0.00 0.00 0.00 100 1012.8
20260904004506 72 22 0.0 0.0 0.00 0.00 0.00 100 1012.9
20260904003002 73 22 0.0 0.0 0.00 0.00 0.00 100 1012.9
20260904001559 73 22 0.0 0.0 0.00 0.00 0.00 100 1012.8
20260904000053 74 22 0.0 0.0 0.00 0.00 0.00 100 1012.7
20260903234548 74 22 0.0 0.0 0.00 0.00 0.00 100 1012.8
20260903233049 75 22 0.0 0.0 0.00 0.00 0.00 100 1012.4
20260903231540 76 22 0.0 0.0 0.00 0.00 0.00 100 1012.3
20260903230044 77 22 0.0 0.0 0.00 0.00 0.00 100 1012.3
20260903224531 78 22 0.0 0.0 0.00 0.00 0.00 100 1012.3
20260903223028 79 22 0.0 0.0 0.00 0.00 0.00 2 1012.2
20260903221523 80 22 0.0 0.0 0.00 0.00 0.00 18 1012.0
20260903220018 79 22 0.0 1.0 0.00 0.00 0.00 26 1011.9
20260903214514 80 23 0.0 1.0 0.00 0.00 0.00 31 1012.2
20260903213009 80 24 0.0 5.0 0.00 0.00 0.00 40 1012.0
20260903211505 80 297 0.0 3.0 0.00 0.00 0.00 33 1012.0
20260903210114 80 286 0.0 0.0 0.00 0.00 0.00 33 1011.9
20260903204557 81 272 0.0 1.0 0.00 0.00 0.00 39 1012.0
20260903203052 81 272 0.0 2.0 0.00 0.00 0.00 47 1011.9
20260903201548 82 323 0.0 4.0 0.00 0.00 0.00 52 1011.9
20260903200043 83 140 0.0 5.0 0.00 0.00 0.00 55 1012.1
20260903194538 82 190 0.0 5.0 0.00 0.00 0.00 54 1012.0
20260903193034 82 167 1.0 5.0 0.00 0.00 0.00 48 1012.1
20260903191545 80 113 0.0 2.0 0.00 0.00 0.00 9 1012.3
20260903190025 79 35 0.0 6.0 0.00 0.00 0.00 14 1012.5
20260903184523 79 142 0.0 3.0 0.00 0.00 0.00 14 1012.6
20260903183016 80 77 0.0 0.0 0.00 0.00 0.00 24 1012.8
20260903181512 82 100 0.0 2.0 0.00 0.00 0.00 23 1012.8
20260903180008 80 110 0.0 2.0 0.00 0.00 0.00 5 1012.9
20260903174503 79 88 0.0 3.0 0.00 0.00 0.00 6 1013.0
20260903173100 79 143 0.0 0.0 0.00 0.00 0.00 100 1013.2
20260903171559 79 143 0.0 1.0 0.00 0.00 0.00 100 1013.3
20260903170053 79 144 0.0 0.0 0.00 0.00 0.00 100 1013.4
20260903164545 78 144 0.0 1.0 0.00 0.00 0.00 100 1013.7
20260903163044 78 144 0.0 2.0 0.00 0.00 0.00 100 1013.9
20260903161547 77 144 0.0 1.0 0.00 0.00 0.00 100 1013.9
20260903160031 75 145 0.0 2.0 0.00 0.00 0.00 100 1013.9
20260903154528 74 145 0.0 4.0 0.00 0.00 0.00 100 1014.2
20260903153023 73 143 0.0 3.0 0.00 0.00 0.00 100 1014.2
20260903151519 72 125 0.0 1.0 0.00 0.00 0.00 100 1014.1
20260903150019 71 125 0.0 3.0 0.00 0.00 0.00 100 1014.0